GPS BIIR-11 (28190 NORAD) Tracking and Keplerian Element Data

This shows tracking and keplerian element data for the satellite.

Feedback or suggestion? Click here.




ElementValue
Catalog28190
NameGPS BIIR-11
Epoch Orbit15290
Epoch Day32.4691583
Epoch Year2025
RAAN295.8619
Inclination55.2542
Eccentricity0.0099962
Argument of Perigee156.37
Mean Anonmoly313.2674
Mean Motion2.00571161
Decay Rate-2.4E-07
L11 28190U 04009A 25032.46915830 -.00000024 00000+0 00000+0 0 9996
L22 28190 55.2542 295.8619 0099962 156.3700 313.2674 2.00571161152908



Live tracking and technical data element details for GPS BIIR-11 (NORAD 28190). GPS BIIR-11 can be tracked NOW for your location showing map with azimuth and elevation plus other details from your city location.







IsCatalogInMostPopularTable: catalog: 28190, numindb: 316
Update: records affected: 1



GetName: 28190 GPS BIIR-11

Hit Count: updated at: Fri, 16 May 2025 11:46:16 GMT